Voltar ao catálogo

STARLINK-34731

AtivoComunicaçõesVLEO
NORAD 65029·PAYLOAD·🇺🇸 United States

Lançado Jul 30, 2025 de Cape Canaveral Space Force Station

Loading…

Próximas Passagens (próximas 24 horas)

TLE

AtualizadoSource: CelesTrak SupGP

Época: Sep 14, 2026, 21:07 UTC

1 65029C 25161Q   26257.88034722 -.00039256  00000+0 -11599-2 0  2573
2 65029  53.1573 131.6856 0001265  81.1911  98.1438 15.34408062    10

Acompanhe STARLINK-34731 em tempo real com AllMySat

Download on the App Store